Location: Wayah Bald
(35.1806°N, 83.5603°W)
Time: 01:36:18
(UTC-04:00)

Meteor 1-27 Rocket - Visible Passes

Search period start: 01 September 2016 00:00
Search period end: 11 September 2016 00:00
Orbit: 830 x 910 km, 81.3° (Epoch: 31 August)

Date Brightness Start Highest point End Pass type
(mag) Time Alt. Az. Time Alt. Az. Time Alt. Az.
01 Sep 3.7 06:23:27 10° S 06:29:01 88° E 06:34:34 10° N visible
02 Sep 3.7 06:17:16 10° S 06:22:49 89° W 06:28:22 10° N visible
03 Sep 3.7 06:11:05 10° S 06:16:37 87° W 06:22:10 10° N visible
04 Sep 3.6 06:04:54 10° S 06:10:26 84° W 06:15:59 10° N visible
05 Sep 3.6 05:58:43 10° S 06:04:15 81° W 06:09:47 10° N visible
06 Sep 3.6 05:52:32 10° SSW 05:58:03 79° W 06:03:35 10° N visible
07 Sep 6.6 04:08:45 10° E 04:09:20 10° E 04:09:55 10° ENE visible
07 Sep 3.6 05:46:21 10° SSW 05:51:51 76° W 05:57:23 10° N visible
08 Sep 6.5 04:01:57 10° E 04:03:07 11° E 04:04:17 10° ENE visible
08 Sep 3.6 05:41:08 15° SSW 05:45:39 73° W 05:51:12 10° N visible
09 Sep 6.4 03:55:23 10° E 03:56:54 11° E 03:58:25 10° ENE visible
09 Sep 3.6 05:36:02 24° SSW 05:39:28 71° W 05:44:59 10° N visible
10 Sep 6.4 03:48:53 10° ESE 03:50:41 12° E 03:52:29 10° ENE visible
10 Sep 3.6 05:30:50 33° SSW 05:33:17 68° W 05:38:47 10° N visible
